sat.trackr.live / text

‹ back to catalog

STARLINK-1278

NORAD 45408 · 2020-019BA

PAYLOAD ACTIVE UNKNOWN

§ Identity

Operator
Country
US
Launch date
2020-03-18
Launch site
AFETR
Launch vehicle
Mass (kg)
RCS (m²)

Purposes: comms

External: N2YO · Heavens-Above · Gunter

§ Orbital elements

Epoch: 2026-09-10T06:00:02.000160Z

Period
90.46 min
Inclination
53.0310°
Eccentricity
0.0007598
Mean motion
15.91940881 rev/d
Perigee alt
291.8 km
Apogee alt
301.9 km
Semi-major
6,675.0 km
B*
2.8142e-4
RAAN
294.6160°
Arg perigee
12.6545°
Mean anomaly
333.0842°
Rev number
596

§ Raw data

STARLINK-12781 45408U 20019BA  26253.25002315  .00092200  14324-4  28142-3 0  99902 45408  53.0310 294.6160 0007598  12.6545 333.0842 15.91940881  5964

JSON: /api/v1/satellites/45408 · /tle

For live sub-satellite position, see the globe view (requires WebGL).

§ Visibility from observer

Set your observer location to see the next 7 days of passes ≥ 10°. The values pass through the URL so the page stays shareable.

No JS? Fill the form by hand. The geolocation button needs JavaScript.